Time,TemperatureF,DewpointF,PressureIn,WindDirection,WindDirectionDegrees,WindSpeedMPH,WindSpeedGustMPH,Humidity,HourlyPrecipIn,Conditions,Clouds,dailyrainin,SoftwareType,DateUTC
2013-05-17 00:03:00,51.0,42.0,29.87,NNW,337,0.0,-999.0,72,-99.99,,,-99.99,,2013-05-17 04:03:00,
2013-05-17 00:13:00,51.0,42.0,29.87,NNW,337,0.0,-999.0,72,-99.99,,,-99.99,,2013-05-17 04:13:00,
2013-05-17 00:23:00,50.0,42.0,29.88,NNW,337,0.0,-999.0,73,-99.99,,,-99.99,,2013-05-17 04:23:00,
2013-05-17 00:34:00,50.0,41.0,29.88,NNW,337,0.0,-999.0,72,-99.99,,,-99.99,,2013-05-17 04:34:00,
2013-05-17 00:43:00,50.0,41.0,29.88,NNW,337,0.0,-999.0,72,-99.99,,,-99.99,,2013-05-17 04:43:00,
2013-05-17 00:53:00,50.0,41.0,29.88,NNW,337,0.0,-999.0,72,-99.99,,,-99.99,,2013-05-17 04:53:00,
2013-05-17 01:03:00,50.0,42.0,29.88,NNW,337,0.0,-999.0,73,-99.99,,,-99.99,,2013-05-17 05:03:00,
2013-05-17 01:14:00,50.0,42.0,29.88,NNW,337,0.0,-999.0,73,-99.99,,,-99.99,,2013-05-17 05:14:00,
2013-05-17 01:22:00,49.0,41.0,29.89,NNW,337,0.0,-999.0,74,-99.99,,,-99.99,,2013-05-17 05:22:00,
2013-05-17 01:32:00,48.0,41.0,29.89,NNW,337,0.0,-999.0,76,-99.99,,,-99.99,,2013-05-17 05:32:00,
2013-05-17 01:43:00,48.0,41.0,29.89,NNW,337,0.0,-999.0,76,-99.99,,,-99.99,,2013-05-17 05:43:00,
2013-05-17 01:52:00,48.0,41.0,29.90,NNW,337,0.0,-999.0,78,-99.99,,,-99.99,,2013-05-17 05:52:00,
2013-05-17 02:02:00,48.0,41.0,29.90,NNW,337,0.0,-999.0,78,-99.99,,,-99.99,,2013-05-17 06:02:00,
2013-05-17 02:11:00,48.0,41.0,29.90,NNW,337,0.0,-999.0,78,-99.99,,,-99.99,,2013-05-17 06:11:00,
2013-05-17 02:22:00,48.0,41.0,29.90,NNW,337,0.0,-999.0,77,-99.99,,,-99.99,,2013-05-17 06:22:00,
2013-05-17 02:32:00,48.0,41.0,29.90,NNW,337,0.0,-999.0,77,-99.99,,,-99.99,,2013-05-17 06:32:00,
2013-05-17 02:42:00,48.0,41.0,29.90,NNW,337,0.0,-999.0,77,-99.99,,,-99.99,,2013-05-17 06:42:00,
2013-05-17 02:52:00,48.0,41.0,29.90,NNW,337,0.0,-999.0,78,-99.99,,,-99.99,,2013-05-17 06:52:00,
2013-05-17 03:03:00,47.0,41.0,29.89,NNW,337,0.0,-999.0,80,-99.99,,,-99.99,,2013-05-17 07:03:00,
2013-05-17 03:11:00,47.0,41.0,29.89,NNW,337,0.0,-999.0,80,-99.99,,,-99.99,,2013-05-17 07:11:00,
2013-05-17 03:21:00,46.0,41.0,29.89,NNW,337,0.0,-999.0,82,-99.99,,,-99.99,,2013-05-17 07:21:00,
2013-05-17 03:32:00,45.0,41.0,29.89,NNW,337,0.0,-999.0,85,-99.99,,,-99.99,,2013-05-17 07:32:00,
2013-05-17 03:43:00,45.0,41.0,29.89,NNW,337,0.0,-999.0,85,-99.99,,,-99.99,,2013-05-17 07:43:00,
2013-05-17 03:53:00,46.0,42.0,29.91,NNW,337,0.0,-999.0,85,-99.99,,,-99.99,,2013-05-17 07:53:00,
2013-05-17 04:02:00,46.0,41.0,29.91,NNW,337,0.0,-999.0,84,-99.99,,,-99.99,,2013-05-17 08:02:00,
2013-05-17 04:12:00,46.0,41.0,29.91,NNW,337,0.0,-999.0,84,-99.99,,,-99.99,,2013-05-17 08:12:00,
2013-05-17 04:23:00,46.0,41.0,29.91,NNW,337,0.0,-999.0,84,-99.99,,,-99.99,,2013-05-17 08:23:00,
2013-05-17 04:34:00,45.0,40.0,29.91,NNW,337,0.0,-999.0,83,-99.99,,,-99.99,,2013-05-17 08:34:00,
2013-05-17 04:42:00,45.0,40.0,29.91,NNW,337,0.0,-999.0,83,-99.99,,,-99.99,,2013-05-17 08:42:00,
2013-05-17 04:52:00,45.0,40.0,29.92,NNW,337,0.0,-999.0,82,-99.99,,,-99.99,,2013-05-17 08:52:00,
2013-05-17 05:02:00,45.0,41.0,29.92,NE,56,0.0,-999.0,85,-99.99,,,-99.99,,2013-05-17 09:02:00,
2013-05-17 05:12:00,45.0,41.0,29.92,NE,56,0.0,-999.0,85,-99.99,,,-99.99,,2013-05-17 09:12:00,
2013-05-17 05:22:00,45.0,41.0,29.92,NE,56,0.0,-999.0,85,-99.99,,,-99.99,,2013-05-17 09:22:00,
2013-05-17 05:33:00,44.0,40.0,29.92,NE,56,0.0,-999.0,86,-99.99,,,-99.99,,2013-05-17 09:33:00,
2013-05-17 05:42:00,44.0,40.0,29.92,NE,56,0.0,-999.0,86,-99.99,,,-99.99,,2013-05-17 09:42:00,
2013-05-17 05:53:00,44.0,40.0,29.94,NE,56,0.0,-999.0,86,-99.99,,,-99.99,,2013-05-17 09:53:00,
2013-05-17 06:03:00,44.0,40.0,29.95,NE,56,0.0,-999.0,87,-99.99,,,-99.99,,2013-05-17 10:03:00,
2013-05-17 06:12:00,44.0,40.0,29.95,NE,56,0.0,-999.0,87,-99.99,,,-99.99,,2013-05-17 10:12:00,
2013-05-17 06:23:00,43.0,39.0,29.96,NE,56,0.0,-999.0,87,-99.99,,,-99.99,,2013-05-17 10:23:00,
2013-05-17 06:33:00,43.0,39.0,29.97,NE,56,0.0,-999.0,87,-99.99,,,-99.99,,2013-05-17 10:33:00,
2013-05-17 06:42:00,43.0,39.0,29.97,NE,56,0.0,-999.0,87,-99.99,,,-99.99,,2013-05-17 10:42:00,
2013-05-17 06:53:00,42.0,39.0,29.98,NE,56,0.0,-999.0,88,-99.99,,,-99.99,,2013-05-17 10:53:00,
2013-05-17 07:02:00,42.0,39.0,29.98,NE,56,0.0,-999.0,88,-99.99,,,-99.99,,2013-05-17 11:02:00,
2013-05-17 07:12:00,42.0,39.0,29.98,NE,56,0.0,-999.0,88,-99.99,,,-99.99,,2013-05-17 11:12:00,
2013-05-17 07:23:00,43.0,40.0,29.99,NE,56,0.0,-999.0,89,-99.99,,,-99.99,,2013-05-17 11:23:00,
2013-05-17 07:34:00,43.0,40.0,29.99,NE,56,0.0,-999.0,89,-99.99,,,-99.99,,2013-05-17 11:34:00,
2013-05-17 07:42:00,43.0,40.0,29.99,NE,56,0.0,-999.0,89,-99.99,,,-99.99,,2013-05-17 11:42:00,
2013-05-17 07:53:00,43.0,40.0,30.00,NE,56,0.0,-999.0,89,-99.99,,,-99.99,,2013-05-17 11:53:00,
2013-05-17 08:03:00,44.0,41.0,30.01,NE,56,0.0,-999.0,90,-99.99,,,-99.99,,2013-05-17 12:03:00,
2013-05-17 08:12:00,44.0,41.0,30.01,NE,56,0.0,-999.0,90,-99.99,,,-99.99,,2013-05-17 12:12:00,
2013-05-17 08:23:00,45.0,42.0,30.00,NE,56,0.0,-999.0,89,-99.99,,,-99.99,,2013-05-17 12:23:00,
2013-05-17 08:32:00,47.0,43.0,30.01,NE,56,0.0,-999.0,87,-99.99,,,-99.99,,2013-05-17 12:32:00,
2013-05-17 08:43:00,47.0,43.0,30.01,NE,56,0.0,-999.0,87,-99.99,,,-99.99,,2013-05-17 12:43:00,
2013-05-17 08:53:00,49.0,42.0,30.01,ENE,75,0.0,-999.0,77,-99.99,,,-99.99,,2013-05-17 12:53:00,
2013-05-17 09:03:00,51.0,41.0,30.01,ESE,109,0.0,-999.0,69,-99.99,,,-99.99,,2013-05-17 13:03:00,
2013-05-17 09:12:00,51.0,41.0,30.01,ESE,109,0.0,-999.0,69,-99.99,,,-99.99,,2013-05-17 13:12:00,
2013-05-17 09:23:00,53.0,43.0,30.01,NNW,332,0.0,-999.0,68,-99.99,,,-99.99,,2013-05-17 13:23:00,
2013-05-17 09:33:00,55.0,44.0,30.01,NNW,333,0.0,-999.0,67,-99.99,,,-99.99,,2013-05-17 13:33:00,
2013-05-17 09:42:00,55.0,44.0,30.01,NNW,333,0.0,-999.0,67,-99.99,,,-99.99,,2013-05-17 13:42:00,
2013-05-17 09:52:00,56.0,44.0,30.01,North,356,0.0,-999.0,64,-99.99,,,-99.99,,2013-05-17 13:52:00,
2013-05-17 10:02:00,58.0,45.0,30.01,North,356,0.0,-999.0,61,-99.99,,,-99.99,,2013-05-17 14:02:00,
2013-05-17 10:13:00,58.0,45.0,30.01,North,356,0.0,-999.0,61,-99.99,,,-99.99,,2013-05-17 14:13:00,
2013-05-17 10:22:00,59.0,43.0,30.01,North,356,0.0,-999.0,55,-99.99,,,-99.99,,2013-05-17 14:22:00,
2013-05-17 10:34:00,61.0,42.0,30.02,ESE,109,0.0,-999.0,49,-99.99,,,-99.99,,2013-05-17 14:34:00,
2013-05-17 10:43:00,61.0,42.0,30.02,ESE,109,0.0,-999.0,49,-99.99,,,-99.99,,2013-05-17 14:43:00,
2013-05-17 10:53:00,62.0,44.0,30.02,NW,308,0.0,-999.0,51,-99.99,,,-99.99,,2013-05-17 14:53:00,
2013-05-17 11:03:00,64.0,44.0,30.02,NNW,335,0.0,-999.0,48,-99.99,,,-99.99,,2013-05-17 15:03:00,
2013-05-17 11:14:00,64.0,44.0,30.02,NNW,335,0.0,-999.0,48,-99.99,,,-99.99,,2013-05-17 15:14:00,
2013-05-17 11:25:00,65.0,41.0,30.02,East,82,0.0,-999.0,42,-99.99,,,-99.99,,2013-05-17 15:25:00,
2013-05-17 11:37:00,66.0,43.0,30.02,ENE,76,0.0,-999.0,44,-99.99,,,-99.99,,2013-05-17 15:37:00,
2013-05-17 11:47:00,66.0,43.0,30.02,ENE,76,0.0,-999.0,44,-99.99,,,-99.99,,2013-05-17 15:47:00,
2013-05-17 11:56:00,67.0,42.0,30.02,ESE,102,0.0,-999.0,40,-99.99,,,-99.99,,2013-05-17 15:56:00,
2013-05-17 12:07:00,67.0,39.0,30.02,ENE,58,0.0,-999.0,36,-99.99,,,-99.99,,2013-05-17 16:07:00,
2013-05-17 12:14:00,67.0,39.0,30.02,ENE,58,0.0,-999.0,36,-99.99,,,-99.99,,2013-05-17 16:14:00,
2013-05-17 12:26:00,68.0,39.0,30.02,ESE,114,0.0,-999.0,34,-99.99,,,-99.99,,2013-05-17 16:26:00,
2013-05-17 12:37:00,69.0,42.0,30.02,North,349,0.0,-999.0,38,-99.99,,,-99.99,,2013-05-17 16:37:00,
2013-05-17 12:49:00,69.0,42.0,30.02,North,349,0.0,-999.0,38,-99.99,,,-99.99,,2013-05-17 16:49:00,
2013-05-17 12:56:00,69.0,38.0,30.01,NNW,332,1.0,-999.0,32,-99.99,,,-99.99,,2013-05-17 16:56:00,
2013-05-17 13:08:00,70.0,40.0,30.01,NNW,339,1.0,-999.0,33,-99.99,,,-99.99,,2013-05-17 17:08:00,
2013-05-17 13:19:00,70.0,40.0,30.01,NNW,339,1.0,-999.0,33,-99.99,,,-99.99,,2013-05-17 17:19:00,
2013-05-17 13:30:00,71.0,36.0,30.01,NNW,347,0.0,-999.0,28,-99.99,,,-99.99,,2013-05-17 17:30:00,
2013-05-17 13:40:00,71.0,-99.9,30.01,NW,326,2.0,-999.0,30,-99.99,,,-99.99,,2013-05-17 17:40:00,
2013-05-17 13:49:00,71.0,38.0,30.01,NW,326,2.0,-999.0,30,-99.99,,,-99.99,,2013-05-17 17:49:00,
2013-05-17 14:00:00,72.0,43.0,30.00,NNW,347,1.0,-999.0,35,-99.99,,,-99.99,,2013-05-17 18:00:00,
2013-05-17 14:09:00,73.0,40.0,30.00,NW,320,1.0,-999.0,30,-99.99,,,-99.99,,2013-05-17 18:09:00,
2013-05-17 14:20:00,73.0,40.0,30.00,NW,320,1.0,-999.0,30,-99.99,,,-99.99,,2013-05-17 18:20:00,
2013-05-17 14:30:00,73.0,41.0,29.99,NNW,342,1.0,-999.0,31,-99.99,,,-99.99,,2013-05-17 18:30:00,
2013-05-17 14:40:00,74.0,-99.9,30.00,North,10,0.0,-999.0,28,-99.99,,,-99.99,,2013-05-17 18:40:00,
2013-05-17 14:50:00,-999.0,-99.9,30.00,North,10,0.0,-999.0,28,-99.99,,,-99.99,,2013-05-17 18:50:00,
2013-05-17 15:00:00,73.0,39.0,30.00,SSE,167,1.0,-999.0,29,-99.99,,,-99.99,,2013-05-17 19:00:00,
2013-05-17 15:10:00,74.0,45.0,30.00,NNW,337,2.0,-999.0,36,-99.99,,,-99.99,,2013-05-17 19:10:00,
2013-05-17 15:20:00,74.0,45.0,30.00,NNW,337,2.0,-999.0,36,-99.99,,,-99.99,,2013-05-17 19:20:00,
2013-05-17 15:30:00,74.0,40.0,29.99,North,354,2.0,-999.0,29,-99.99,,,-99.99,,2013-05-17 19:30:00,
2013-05-17 15:40:00,74.0,40.0,29.99,North,354,2.0,-999.0,29,-99.99,,,-99.99,,2013-05-17 19:40:00,
2013-05-17 15:51:00,74.0,40.0,29.99,North,354,2.0,-999.0,29,-99.99,,,-99.99,,2013-05-17 19:51:00,
2013-05-17 16:00:00,75.0,-99.9,29.99,NNW,330,3.0,-999.0,32,-99.99,,,-99.99,,2013-05-17 20:00:00,
2013-05-17 16:10:00,75.0,41.0,29.99,North,349,1.0,-999.0,29,-99.99,,,-99.99,,2013-05-17 20:10:00,
2013-05-17 16:20:00,75.0,41.0,29.99,North,349,1.0,-999.0,29,-99.99,,,-99.99,,2013-05-17 20:20:00,
2013-05-17 16:30:00,76.0,48.0,29.99,NW,320,3.0,-999.0,37,-99.99,,,-99.99,,2013-05-17 20:30:00,
2013-05-17 16:40:00,76.0,46.0,29.99,NNW,339,2.0,-999.0,35,-99.99,,,-99.99,,2013-05-17 20:40:00,
2013-05-17 16:50:00,76.0,46.0,29.99,NNW,339,2.0,-999.0,35,-99.99,,,-99.99,,2013-05-17 20:50:00,
2013-05-17 16:58:00,75.0,43.0,29.99,North,352,1.0,-999.0,32,-99.99,,,-99.99,,2013-05-17 20:58:00,
2013-05-17 17:07:00,75.0,43.0,29.99,North,352,3.0,-999.0,32,-99.99,,,-99.99,,2013-05-17 21:07:00,
2013-05-17 17:17:00,75.0,43.0,29.99,North,352,3.0,-999.0,32,-99.99,,,-99.99,,2013-05-17 21:17:00,
2013-05-17 17:26:00,74.0,41.0,29.99,NNW,342,4.0,-999.0,30,-99.99,,,-99.99,,2013-05-17 21:26:00,
2013-05-17 17:39:00,74.0,41.0,29.99,North,353,5.0,-999.0,31,-99.99,,,-99.99,,2013-05-17 21:39:00,
2013-05-17 17:49:00,74.0,41.0,29.99,North,353,5.0,-999.0,31,-99.99,,,-99.99,,2013-05-17 21:49:00,
2013-05-17 17:57:00,74.0,40.0,29.99,NNW,346,2.0,-999.0,29,-99.99,,,-99.99,,2013-05-17 21:57:00,
2013-05-17 18:07:00,74.0,43.0,29.99,NNW,330,2.0,-999.0,33,-99.99,,,-99.99,,2013-05-17 22:07:00,
2013-05-17 18:17:00,74.0,43.0,29.99,NNW,330,2.0,-999.0,33,-99.99,,,-99.99,,2013-05-17 22:17:00,
2013-05-17 18:28:00,73.0,41.0,29.99,NNW,346,2.0,-999.0,31,-99.99,,,-99.99,,2013-05-17 22:28:00,
2013-05-17 18:38:00,72.0,37.0,29.99,NNW,329,2.0,-999.0,28,-99.99,,,-99.99,,2013-05-17 22:38:00,
2013-05-17 18:47:00,72.0,37.0,29.99,NNW,329,2.0,-999.0,28,-99.99,,,-99.99,,2013-05-17 22:47:00,
2013-05-17 18:54:00,71.0,40.0,29.99,North,349,1.0,-999.0,32,-99.99,,,-99.99,,2013-05-17 22:54:00,
2013-05-17 19:04:00,69.0,39.0,30.00,NNW,328,2.0,-999.0,34,-99.99,,,-99.99,,2013-05-17 23:04:00,
2013-05-17 19:13:00,69.0,39.0,30.00,NNW,328,2.0,-999.0,34,-99.99,,,-99.99,,2013-05-17 23:13:00,
2013-05-17 19:23:00,68.0,39.0,30.01,NNW,328,1.0,-999.0,35,-99.99,,,-99.99,,2013-05-17 23:23:00,
2013-05-17 19:37:00,67.0,41.0,30.00,NNW,347,0.0,-999.0,38,-99.99,,,-99.99,,2013-05-17 23:37:00,
2013-05-17 19:47:00,67.0,41.0,30.00,NNW,347,0.0,-999.0,38,-99.99,,,-99.99,,2013-05-17 23:47:00,
2013-05-17 19:54:00,66.0,41.0,30.01,NW,309,0.0,-999.0,40,-99.99,,,-99.99,,2013-05-17 23:54:00,
2013-05-17 20:02:00,66.0,42.0,30.01,NW,309,0.0,-999.0,41,-99.99,,,-99.99,,2013-05-18 00:02:00,
2013-05-17 20:14:00,66.0,42.0,30.01,NW,309,0.0,-999.0,41,-99.99,,,-99.99,,2013-05-18 00:14:00,
2013-05-17 20:22:00,65.0,43.0,30.01,NW,313,0.0,-999.0,44,-99.99,,,-99.99,,2013-05-18 00:22:00,
2013-05-17 20:34:00,64.0,42.0,30.01,NW,313,0.0,-999.0,45,-99.99,,,-99.99,,2013-05-18 00:34:00,
2013-05-17 20:45:00,64.0,42.0,30.01,NW,313,0.0,-999.0,45,-99.99,,,-99.99,,2013-05-18 00:45:00,
2013-05-17 20:54:00,63.0,42.0,30.01,North,359,0.0,-999.0,46,-99.99,,,-99.99,,2013-05-18 00:54:00,
2013-05-17 21:03:00,62.0,43.0,30.01,North,359,0.0,-999.0,49,-99.99,,,-99.99,,2013-05-18 01:03:00,
2013-05-17 21:13:00,62.0,43.0,30.01,North,359,0.0,-999.0,49,-99.99,,,-99.99,,2013-05-18 01:13:00,
2013-05-17 21:24:00,61.0,43.0,30.01,North,359,0.0,-999.0,52,-99.99,,,-99.99,,2013-05-18 01:24:00,
2013-05-17 21:32:00,59.0,43.0,30.01,North,359,0.0,-999.0,56,-99.99,,,-99.99,,2013-05-18 01:32:00,
2013-05-17 21:43:00,59.0,43.0,30.01,North,359,0.0,-999.0,56,-99.99,,,-99.99,,2013-05-18 01:43:00,
2013-05-17 21:52:00,58.0,43.0,30.02,North,359,0.0,-999.0,58,-99.99,,,-99.99,,2013-05-18 01:52:00,
2013-05-17 22:03:00,57.0,44.0,30.03,North,359,0.0,-999.0,62,-99.99,,,-99.99,,2013-05-18 02:03:00,
2013-05-17 22:12:00,57.0,44.0,30.03,North,359,0.0,-999.0,62,-99.99,,,-99.99,,2013-05-18 02:12:00,
2013-05-17 22:23:00,56.0,44.0,30.03,North,359,0.0,-999.0,65,-99.99,,,-99.99,,2013-05-18 02:23:00,
2013-05-17 22:32:00,56.0,45.0,30.03,North,359,0.0,-999.0,66,-99.99,,,-99.99,,2013-05-18 02:32:00,
2013-05-17 22:42:00,56.0,45.0,30.03,North,359,0.0,-999.0,66,-99.99,,,-99.99,,2013-05-18 02:42:00,
2013-05-17 22:53:00,56.0,44.0,30.03,North,359,0.0,-999.0,64,-99.99,,,-99.99,,2013-05-18 02:53:00,
2013-05-17 23:03:00,56.0,45.0,30.03,North,359,0.0,-999.0,67,-99.99,,,-99.99,,2013-05-18 03:03:00,
2013-05-17 23:12:00,56.0,45.0,30.03,North,359,0.0,-999.0,67,-99.99,,,-99.99,,2013-05-18 03:12:00,
2013-05-17 23:23:00,56.0,45.0,30.03,North,359,0.0,-999.0,67,-99.99,,,-99.99,,2013-05-18 03:23:00,
2013-05-17 23:33:00,56.0,46.0,30.03,North,359,0.0,-999.0,69,-99.99,,,-99.99,,2013-05-18 03:33:00,
2013-05-17 23:43:00,56.0,46.0,30.03,North,359,0.0,-999.0,69,-99.99,,,-99.99,,2013-05-18 03:43:00,
2013-05-17 23:53:00,56.0,46.0,30.03,North,359,0.0,-999.0,70,-99.99,,,-99.99,,2013-05-18 03:53:00,